When you browse on this site, cookies collect data to enhance your experience and personalize the content and advertising you see.
Visit our Privacy Policy to learn more. By continuing to use the site, you agree to this use of cookies and data.
  • In Czech Republic
  • List of Countries
  • For 7 days
  • Water Temperature
  • Satellite Maps
  • Weather Map
  • Weather Widgets
  • user-avatar
    Login

    Hourly Weather Sherpur

    Today, 24 May, Friday

    Time Temperature Precipitation Wind Pressure Humidity
    00:00 +13°C° 0.1 mm 2 mps 607 mmHg 79%
    01:00 +13°C° 0.1 mm 2 mps 606 mmHg 79%
    02:00 +12°C° 0.1 mm 2 mps 606 mmHg 79%
    03:00 +12°C° 0.1 mm 2 mps 606 mmHg 78%
    04:00 +12°C° 0.1 mm 1 mps 606 mmHg 78%
    05:00 +12°C° 0 mm 1 mps 606 mmHg 78%
    06:00 +12°C° 0.1 mm 1 mps 607 mmHg 73%
    07:00 +13°C° 0.1 mm 1 mps 607 mmHg 67%
    08:00 +14°C° 0.1 mm 2 mps 608 mmHg 61%
    09:00 +15°C° 0.1 mm 2 mps 608 mmHg 57%
    10:00 +16°C° 0.1 mm 2 mps 608 mmHg 52%
    11:00 +17°C° 0 mm 2 mps 609 mmHg 47%
    12:00 +18°C° 0.2 mm 2 mps 609 mmHg 44%
    13:00 +19°C° 0.2 mm 2 mps 609 mmHg 42%
    14:00 +20°C° 0.2 mm 2 mps 610 mmHg 39%
    15:00 +20°C° 0.2 mm 2 mps 610 mmHg 38%
    16:00 +20°C° 0.2 mm 2 mps 610 mmHg 38%
    17:00 +20°C° 0.2 mm 2 mps 610 mmHg 37%
    18:00 +19°C° 0.1 mm 2 mps 610 mmHg 39%
    19:00 +19°C° 0.1 mm 2 mps 610 mmHg 41%
    20:00 +18°C° 0.1 mm 2 mps 610 mmHg 43%
    21:00 +18°C° 0 mm 1 mps 610 mmHg 46%
    22:00 +18°C° 0 mm 1 mps 610 mmHg 49%
    23:00 +16°C° 0 mm 1 mps 610 mmHg 51%

    Tomorrow, 25 May, Saturday

    Time Temperature Precipitation Wind Pressure Humidity
    00:00 +16°C° 0 mm 1 mps 610 mmHg 52%
    01:00 +15°C° 0 mm 1 mps 610 mmHg 52%
    02:00 +15°C° 0 mm 1 mps 610 mmHg 52%
    03:00 +14°C° 0 mm 2 mps 610 mmHg 51%
    04:00 +14°C° 0 mm 2 mps 609 mmHg 50%
    05:00 +13°C° 0 mm 2 mps 609 mmHg 49%
    06:00 +15°C° 0 mm 2 mps 610 mmHg 44%
    07:00 +16°C° 0 mm 2 mps 610 mmHg 39%
    08:00 +18°C° 0 mm 2 mps 611 mmHg 33%
    09:00 +19°C° 0 mm 2 mps 611 mmHg 30%
    10:00 +21°C° 0 mm 2 mps 612 mmHg 26%
    11:00 +23°C° 0 mm 2 mps 612 mmHg 22%
    12:00 +24°C° 0 mm 3 mps 612 mmHg 21%
    13:00 +25°C° 0 mm 3 mps 612 mmHg 20%
    14:00 +26°C° 0 mm 3 mps 612 mmHg 19%
    15:00 +26°C° 0 mm 4 mps 612 mmHg 19%
    16:00 +25°C° 0 mm 5 mps 611 mmHg 19%
    17:00 +25°C° 0 mm 5 mps 611 mmHg 20%
    18:00 +23°C° 0 mm 5 mps 611 mmHg 23%
    19:00 +21°C° 0 mm 5 mps 611 mmHg 25%
    20:00 +19°C° 0 mm 4 mps 610 mmHg 28%
    21:00 +19°C° 0 mm 4 mps 610 mmHg 30%
    22:00 +18°C° 0 mm 3 mps 610 mmHg 32%
    23:00 +17°C° 0 mm 3 mps 610 mmHg 34%

    Day after tomorrow, 26 May, Sunday

    Time Temperature Precipitation Wind Pressure Humidity
    00:00 +16°C° 0 mm 3 mps 610 mmHg 36%
    01:00 +16°C° 0 mm 2 mps 610 mmHg 37%
    02:00 +15°C° 0 mm 2 mps 609 mmHg 39%
    03:00 +14°C° 0 mm 2 mps 609 mmHg 39%
    04:00 +14°C° 0 mm 2 mps 609 mmHg 40%
    05:00 +13°C° 0 mm 2 mps 609 mmHg 41%
    06:00 +14°C° 0 mm 3 mps 610 mmHg 37%
    07:00 +16°C° 0 mm 3 mps 610 mmHg 33%
    08:00 +17°C° 0 mm 3 mps 611 mmHg 29%
    09:00 +19°C° 0 mm 3 mps 611 mmHg 26%
    10:00 +20°C° 0 mm 3 mps 612 mmHg 23%
    11:00 +21°C° 0 mm 3 mps 612 mmHg 20%
    12:00 +22°C° 0 mm 4 mps 612 mmHg 18%
    13:00 +23°C° 0 mm 4 mps 612 mmHg 16%
    14:00 +25°C° 0 mm 5 mps 612 mmHg 13%
    15:00 +25°C° 0 mm 5 mps 612 mmHg 13%
    16:00 +25°C° 0 mm 5 mps 612 mmHg 13%
    17:00 +25°C° 0 mm 5 mps 612 mmHg 12%
    18:00 +22°C° 0 mm 5 mps 612 mmHg 15%
    19:00 +21°C° 0 mm 4 mps 611 mmHg 18%
    20:00 +19°C° 0 mm 3 mps 611 mmHg 21%
    21:00 +18°C° 0 mm 2 mps 611 mmHg 23%
    22:00 +17°C° 0 mm 2 mps 611 mmHg 26%
    23:00 +18°C° 0 mm 1 mps 611 mmHg 28%

    27 May, Monday

    Time Temperature Precipitation Wind Pressure Humidity
    00:00 +16°C° 0 mm 2 mps 611 mmHg 29%
    01:00 +15°C° 0 mm 2 mps 611 mmHg 30%
    02:00 +15°C° 0 mm 2 mps 610 mmHg 31%
    03:00 +14°C° 0 mm 2 mps 610 mmHg 31%
    04:00 +14°C° 0 mm 2 mps 610 mmHg 31%
    05:00 +13°C° 0 mm 2 mps 609 mmHg 32%
    06:00 +15°C° 0 mm 2 mps 610 mmHg 28%
    07:00 +17°C° 0 mm 2 mps 611 mmHg 24%
    08:00 +19°C° 0 mm 1 mps 611 mmHg 20%
    09:00 +21°C° 0 mm 1 mps 612 mmHg 17%
    10:00 +23°C° 0 mm 1 mps 612 mmHg 14%
    11:00 +24°C° 0 mm 1 mps 613 mmHg 11%
    12:00 +25°C° 0 mm 1 mps 613 mmHg 10%
    13:00 +26°C° 0 mm 2 mps 613 mmHg 10%
    14:00 +27°C° 0 mm 2 mps 613 mmHg 9%
    15:00 +27°C° 0 mm 2 mps 613 mmHg 9%
    16:00 +28°C° 0 mm 3 mps 612 mmHg 9%
    17:00 +28°C° 0 mm 4 mps 612 mmHg 9%
    18:00 +26°C° 0 mm 3 mps 612 mmHg 11%
    19:00 +24°C° 0 mm 3 mps 612 mmHg 13%
    20:00 +23°C° 0 mm 2 mps 612 mmHg 16%
    21:00 +21°C° 0 mm 2 mps 612 mmHg 18%
    22:00 +20°C° 0 mm 2 mps 611 mmHg 20%
    23:00 +19°C° 0 mm 1 mps 611 mmHg 21%

    28 May, Tuesday

    Time Temperature Precipitation Wind Pressure Humidity
    00:00 +19°C° 0 mm 1 mps 611 mmHg 23%
    01:00 +17°C° 0 mm 2 mps 610 mmHg 24%
    02:00 +17°C° 0 mm 2 mps 610 mmHg 25%
    03:00 +16°C° 0 mm 2 mps 610 mmHg 25%
    04:00 +16°C° 0 mm 2 mps 609 mmHg 26%
    05:00 +15°C° 0 mm 2 mps 609 mmHg 26%
    06:00 +17°C° 0 mm 2 mps 610 mmHg 23%
    07:00 +19°C° 0 mm 2 mps 611 mmHg 21%
    08:00 +22°C° 0 mm 1 mps 612 mmHg 18%
    09:00 +23°C° 0 mm 1 mps 612 mmHg 15%
    10:00 +25°C° 0 mm 1 mps 613 mmHg 13%
    11:00 +26°C° 0 mm 1 mps 613 mmHg 11%
    12:00 +27°C° 0 mm 2 mps 613 mmHg 10%
    13:00 +28°C° 0 mm 2 mps 613 mmHg 10%
    14:00 +29°C° 0 mm 2 mps 613 mmHg 9%
    15:00 +29°C° 0 mm 3 mps 613 mmHg 9%
    16:00 +29°C° 0 mm 4 mps 613 mmHg 9%
    17:00 +29°C° 0 mm 4 mps 613 mmHg 9%
    18:00 +27°C° 0 mm 4 mps 612 mmHg 12%
    19:00 +25°C° 0 mm 3 mps 612 mmHg 14%
    20:00 +24°C° 0 mm 3 mps 612 mmHg 16%
    21:00 +23°C° 0 mm 2 mps 612 mmHg 18%
    22:00 +21°C° 0 mm 2 mps 611 mmHg 20%
    23:00 +21°C° 0 mm 1 mps 611 mmHg 22%

    29 May, Wednesday

    Time Temperature Precipitation Wind Pressure Humidity
    00:00 +20°C° 0 mm 1 mps 611 mmHg 23%
    01:00 +18°C° 0 mm 2 mps 610 mmHg 24%
    02:00 +18°C° 0 mm 2 mps 610 mmHg 24%
    03:00 +17°C° 0 mm 2 mps 610 mmHg 25%
    04:00 +17°C° 0 mm 2 mps 609 mmHg 25%
    05:00 +16°C° 0 mm 2 mps 609 mmHg 25%
    06:00 +19°C° 0 mm 1 mps 610 mmHg 23%
    07:00 +21°C° 0 mm 1 mps 611 mmHg 20%
    08:00 +23°C° 0 mm 1 mps 612 mmHg 17%
    09:00 +24°C° 0 mm 1 mps 612 mmHg 15%
    10:00 +25°C° 0 mm 1 mps 612 mmHg 13%
    11:00 +27°C° 0 mm 1 mps 612 mmHg 11%
    12:00 +27°C° 0 mm 1 mps 612 mmHg 11%
    13:00 +28°C° 0 mm 2 mps 612 mmHg 10%
    14:00 +29°C° 0 mm 2 mps 612 mmHg 10%
    15:00 +29°C° 0 mm 2 mps 612 mmHg 10%
    16:00 +29°C° 0 mm 3 mps 612 mmHg 10%
    17:00 +29°C° 0 mm 3 mps 612 mmHg 10%
    18:00 +28°C° 0 mm 3 mps 611 mmHg 13%
    19:00 +26°C° 0 mm 3 mps 611 mmHg 16%
    20:00 +25°C° 0 mm 3 mps 611 mmHg 18%
    21:00 +24°C° 0 mm 2 mps 611 mmHg 20%
    22:00 +23°C° 0 mm 2 mps 611 mmHg 22%
    23:00 +22°C° 0 mm 1 mps 611 mmHg 24%
    Show more